This is the latest recevied weather packets stored in our database for station/object DH1NAI-6. If no packets are shown the sender has not sent any weather packets the latest 10 day(s).
| Time | Temp. | Humidity | Pressure | Rain* | Wind** | Luminosity | Snow |
|---|---|---|---|---|---|---|---|
| 1778249217 | 10° C | 88% | 1015.6 hPa | 0 mm | - | 61 W/m² | - |
| 1778248608 | 9.44° C | 87% | 1015.6 hPa | 0 mm | - | 42 W/m² | - |
| 1778248001 | 9.44° C | 86% | 1015.7 hPa | 0 mm | - | 30 W/m² | - |
| 1778247392 | 9.44° C | 89% | 1015.7 hPa | 0 mm | - | 36 W/m² | - |
| 1778246785 | 9.44° C | 88% | 1015.6 hPa | 0 mm | - | 43 W/m² | - |
| 1778246176 | 10° C | 89% | 1015.6 hPa | 0 mm | - | 54 W/m² | - |
| 1778245569 | 10° C | 88% | 1015.8 hPa | 0 mm | - | 70 W/m² | - |
| 1778244961 | 10° C | 88% | 1015.9 hPa | 0 mm | - | 97 W/m² | - |
| 1778244336 | 10° C | 88% | 1015.9 hPa | 0 mm | - | 138 W/m² | - |
| 1778243733 | 10.56° C | 88% | 1015.8 hPa | 0 mm | - | 92 W/m² | - |
| 1778243120 | 9.44° C | 88% | 1015.7 hPa | 0 mm | - | 74 W/m² | - |
| 1778242496 | 9.44° C | 90% | 1015.8 hPa | 0 mm | - | 73 W/m² | - |
| 1778241873 | 9.44° C | 89% | 1015.7 hPa | 0 mm | - | 61 W/m² | - |
| 1778241248 | 8.89° C | 89% | 1015.8 hPa | 0 mm | - | 61 W/m² | - |
| 1778240640 | 9.44° C | 88% | 1015.7 hPa | 0 mm | - | 56 W/m² | - |
| 1778240016 | 9.44° C | 89% | 1015.5 hPa | 0 mm | - | 62 W/m² | - |
| 1778239408 | 9.44° C | 90% | 1015.6 hPa | 0 mm | - | 62 W/m² | - |
| 1778238800 | 8.89° C | 90% | 1015.4 hPa | 0 mm | - | 66 W/m² | - |
| 1778238192 | 8.89° C | 92% | 1015.6 hPa | 0 mm | - | 42 W/m² | - |
| 1778237584 | 8.33° C | 92% | 1015.4 hPa | 0 mm | - | 36 W/m² | - |
| 1778236976 | 8.33° C | 93% | 1015.5 hPa | 0 mm | - | 52 W/m² | - |
| 1778236368 | 8.33° C | 93% | 1015.6 hPa | 0 mm | - | 61 W/m² | - |
| 1778235760 | 8.33° C | 93% | 1015.5 hPa | 0 mm | - | 43 W/m² | - |
| 1778235152 | 8.89° C | 90% | 1015.8 hPa | 0 mm | - | 37 W/m² | - |
| 1778234544 | 8.33° C | 89% | 1015.6 hPa | 0 mm | - | 39 W/m² | - |
* Rain latest hour (hover to see other rain measurements)
** Current wind speed in m/s (hover to see current wind gust speed)